[[{"header":{"parameterUnit":"m.s-1","parameterCategory":1,"la1":30.2991,"la2":30.254,"lo1":-89.0895,"lo2":-89.0444,"dy":0.0017,"dx":0.0017,"nx":28,"ny":28,"refTime":"2025-05-23T21:00:00:Z","depth":0,"parameterNumber":2,"parameterNumberName":"U-component_of_WINDS"},"data":[0,0,0,0,0,0,0,0,0,0,0,0,0,0,0,0,0,0,0,0,0,0,0,0,0,0,0,0,0,0,0,0,0,0,0,0,0,0,0,0,0,0,0,0,0,0,0,0,0,0,0,0,0,0,0,0,0,0,0.8869,0.887,0,0.8903,0.8903,0.8904,0.8886,0.8885,0.8884,0.8883,0.8916,0.8918,0.892,0,0,0,0,0,0,0,0,0,0,0,0,0,0.8788,0.879,0.8869,0.887,0.887,0.8903,0.8903,0.8904,0.8886,0.8885,0.8884,0.8883,0.8916,0.8918,0.892,0,0,0,0,0,0,0,0,0,0,0,0,0,0.8823,0.879,0.8869,0.8866,0.8866,0.8903,0.8903,0.8904,0.8886,0.8885,0.8884,0.8883,0.8915,0.8917,0.892,0.8962,0,0,0.8928,0.8929,0,0,0,0,0,0,0,0,0.8821,0.8826,0.8866,0.8866,0.8866,0.8889,0.8887,0.8923,0.8887,0.8878,0.8883,0.8882,0.8908,0.8911,0.892,0.8964,0.8965,0.8928,0.893,0.8931,0.8931,0,0,0,0,0,0,0,0.8818,0.8824,0.8883,0.8866,0.8866,0.8861,0.8865,0.8893,0.89,0.8879,0.8878,0.8882,0.8908,0.8918,0.8921,0.8966,0.8928,0.893,0.8932,0.8933,0.9044,0.9045,0,0,0,0,0,0,0.8817,0.8822,0.8882,0.8884,0.884,0.8864,0.8868,0.8883,0.89,0.8901,0.8883,0.8881,0.8914,0.8918,0.8922,0.8971,0.8931,0.8933,0.8934,0.9042,0.9044,0.9045,0,0,0,0,0,0,0.8815,0.8822,0.888,0.8853,0.886,0.8867,0.8884,0.8884,0.8894,0.8903,0.8904,0.8892,0.8913,0.8918,0.8952,0.8972,0.8934,0.8936,0.904,0.9043,0.9045,0.907,0,0,0,0,0,0,0.8813,0.8822,0.8838,0.8853,0.8861,0.891,0.8885,0.8886,0.8899,0.8896,0.8912,0.8913,0.8913,0.8948,0.8955,0.8975,0.8938,0.9039,0.9041,0.9044,0.9068,0.9073,0.9078,0,0,0,0,0,0.881,0.8844,0.8839,0.8847,0.8883,0.8912,0.8916,0.8915,0.8901,0.8917,0.8922,0.8913,0.8969,0.8952,0.8959,0.898,0.9037,0.9041,0.9044,0.9066,0.9072,0.9078,0,0,0,0,0,0,0.8832,0.8846,0.8841,0.8881,0.8895,0.8909,0.8929,0.8923,0.8941,0.8938,0.8935,0.8939,0.8974,0.898,0.8961,0.9021,0.9001,0.9006,0.9015,0.9021,0.9026,0.9023,0.8941,0,0,0,0,0,0.8841,0.8864,0.8876,0.891,0.8918,0.8922,0.8935,0.8933,0.8947,0.8953,0.8961,0.8975,0.8995,0.9009,0.9029,0.9069,0.9071,0.9087,0.9092,0.9096,0.91,0.9119,0.9126,0.9056,0.9056,0.9056,0,0,0.8861,0.8872,0.8887,0.8915,0.8926,0.8948,0.8927,0.8953,0.8969,0.8957,0.8988,0.8995,0.901,0.9047,0.9063,0.9053,0.912,0.91,0.9103,0.9105,0.9123,0.913,0.9136,0.9058,0.9058,0.9057,0,0,0.8908,0.892,0.8949,0.896,0.8976,0.8979,0.8986,0.9,0.9004,0.9036,0.9026,0.9046,0.9082,0.9092,0.9102,0.9153,0.9144,0.9159,0.9185,0.9204,0.921,0.9214,0.923,0.9237,0.9163,0.9163,0.9163,0,0.8931,0.8965,0.8965,0.8991,0.9002,0.8992,0.9021,0.9032,0.9053,0.9061,0.905,0.9094,0.9104,0.9142,0.9154,0.9163,0.917,0.9157,0.9209,0.9214,0.9218,0.9234,0.924,0.9165,0.9165,0.9164,0.9164,0,0.8991,0.9015,0.9037,0.9058,0.9072,0.91,0.9102,0.9117,0.9113,0.9117,0.9149,0.916,0.918,0.919,0.9187,0.9227,0.922,0.9209,0.9189,0.9227,0.9241,0.9247,0.9167,0.9167,0.9166,0.9166,0,0,0.9053,0.9073,0.908,0.9089,0.9106,0.9124,0.915,0.9171,0.9182,0.9198,0.9218,0.9249,0.9238,0.925,0.9248,0.9265,0.9302,0.9252,0.9252,0.9259,0.9345,0.9351,0.9358,0.9297,0.9298,0.9299,0.9343,0,0.91,0.9146,0.9145,0.9187,0.9208,0.9199,0.9221,0.9234,0.9237,0.9255,0.926,0.928,0.9266,0.9272,0.9289,0.9294,0.9319,0.9291,0.9315,0.9315,0.9309,0.9366,0.9374,0.9414,0.9348,0.9349,0.935,0,0.9161,0.9178,0.9222,0.9234,0.9243,0.9263,0.9281,0.9299,0.9312,0.9313,0.9326,0.9321,0.9346,0.9326,0.936,0.9341,0.9351,0.9355,0.9356,0.9357,0.9334,0.9367,0.9428,0.9433,0.9359,0.9358,0.9358,0,0.9199,0.9233,0.9263,0.9271,0.9287,0.9301,0.9308,0.932,0.9331,0.9347,0.9354,0.9373,0.9383,0.9397,0.9396,0.9382,0.943,0.941,0.9431,0.9431,0.944,0.9439,0.9501,0.9449,0.9449,0.9449,0.9449,0,0.925,0.9277,0.928,0.9298,0.9328,0.9327,0.9355,0.9361,0.9372,0.939,0.9383,0.9401,0.94,0.9418,0.9418,0.9445,0.945,0.9451,0.945,0.945,0.945,0.9456,0.9452,0.9451,0.945,0.945,0.945,0,0.9297,0.93,0.9332,0.9344,0.9348,0.9369,0.9378,0.9395,0.9399,0.9422,0.9428,0.9432,0.9452,0.9454,0.9478,0.9478,0.9509,0.9507,0.9505,0.9504,0.9523,0.9521,0.959,0.9598,0.9542,0.9543,0.9543,0,0.9329,0.9349,0.9363,0.9375,0.9383,0.9402,0.9414,0.9414,0.9426,0.9442,0.9457,0.9476,0.9492,0.9524,0.9529,0.9547,0.9543,0.9566,0.9546,0.9545,0.9541,0.9539,0.954,0.957,0.957,0.9571,0.9571,0,0.9384,0.9384,0.9402,0.942,0.9434,0.9448,0.9461,0.9471,0.9472,0.9487,0.9507,0.9519,0.9542,0.9561,0.9578,0.9584,0.9577,0.9578,0.9583,0.9583,0.958,0.958,0.9514,0.9576,0.9575,0.9575,0.9575,0.9575,0.9423,0.944,0.9452,0.9471,0.9481,0.9493,0.9509,0.9514,0.9531,0.955,0.9549,0.9571,0.9583,0.9605,0.9612,0.9629,0.9621,0.9629,0.9631,0.9632,0.9633,0.9579,0.9632,0.9632,0.9632,0.9632,0.9632,0,0.9476,0.9483,0.9501,0.9519,0.9534,0.9527,0.9541,0.9554,0.9573,0.9585,0.96,0.9622,0.964,0.9647,0.9664,0.9676,0.9673,0.968,0.9678,0.968,0.9641,0.9633,0.9682,0.9682,0.9682,0.9682,0.9682,0.9682,0.9505,0.9533,0.9534,0.9566,0.9573,0.9595,0.9603,0.9614,0.9623,0.9648,0.9663,0.9667,0.9676,0.9694,0.971,0.9711,0.9717,0.9725,0.9725,0.9688,0.9683,0.9678,0.9671,0.9727,0.9727,0.9762,0.9763,0.9763]},{"header":{"parameterUnit":"m.s-1","parameterCategory":1,"la1":30.2991,"la2":30.254,"lo1":-89.0895,"lo2":-89.0444,"dy":0.0017,"dx":0.0017,"nx":28,"ny":28,"refTime":"2025-05-23T21:00:00:Z","depth":0,"parameterNumber":3,"parameterNumberName":"V-component_of_WINDS"},"data":[0,0,0,0,0,0,0,0,0,0,0,0,0,0,0,0,0,0,0,0,0,0,0,0,0,0,0,0,0,0,0,0,0,0,0,0,0,0,0,0,0,0,0,0,0,0,0,0,0,0,0,0,0,0,0,0,0,0,3.5317,3.5317,0,3.5401,3.5402,3.5403,3.5363,3.5361,3.5358,3.5356,3.544,3.5444,3.5448,0,0,0,0,0,0,0,0,0,0,0,0,0,3.5115,3.5119,3.5316,3.5318,3.5319,3.5401,3.5402,3.5403,3.5363,3.5361,3.5358,3.5355,3.5438,3.5443,3.5449,0,0,0,0,0,0,0,0,0,0,0,0,0,3.5202,3.512,3.5316,3.5309,3.5309,3.5401,3.5402,3.5404,3.5364,3.536,3.5357,3.5354,3.5437,3.5443,3.5449,3.5553,0,0,3.5469,3.5471,0,0,0,0,0,0,0,0,3.5197,3.5209,3.5309,3.5309,3.531,3.5368,3.5362,3.5454,3.5365,3.5343,3.5356,3.5353,3.5418,3.5426,3.5449,3.5557,3.556,3.5469,3.5473,3.5476,3.5477,0,0,0,0,0,0,0,3.5191,3.5205,3.535,3.531,3.5311,3.5299,3.5308,3.5379,3.5397,3.5344,3.5342,3.5352,3.5418,3.5443,3.5451,3.5562,3.5469,3.5475,3.5478,3.5481,3.5756,3.5759,0,0,0,0,0,0,3.5186,3.52,3.5347,3.5352,3.5244,3.5306,3.5315,3.5353,3.5397,3.54,3.5355,3.535,3.5434,3.5443,3.5453,3.5576,3.5476,3.5482,3.5485,3.5753,3.5757,3.5761,0,0,0,0,0,0,3.5181,3.5199,3.5344,3.5276,3.5293,3.5313,3.5355,3.5356,3.5381,3.5405,3.5407,3.5378,3.5432,3.5444,3.5528,3.5578,3.5484,3.549,3.5748,3.5754,3.5759,3.5823,0,0,0,0,0,0,3.5176,3.5198,3.5239,3.5277,3.5297,3.5419,3.5358,3.536,3.5392,3.5387,3.5426,3.543,3.543,3.5519,3.5534,3.5585,3.5495,3.5744,3.5751,3.5757,3.5817,3.583,3.5842,0,0,0,0,0,3.5169,3.5253,3.5241,3.5259,3.5349,3.5422,3.5433,3.5433,3.5397,3.5437,3.5452,3.5429,3.5571,3.5528,3.5545,3.5599,3.5741,3.5749,3.5757,3.5811,3.5827,3.5841,0,0,0,0,0,0,3.522,3.5258,3.5245,3.5345,3.538,3.5415,3.5466,3.545,3.5496,3.5489,3.5485,3.5494,3.558,3.5598,3.555,3.57,3.565,3.5662,3.5686,3.5701,3.5713,3.5707,3.55,0,0,0,0,0,3.5243,3.53,3.533,3.5415,3.5434,3.5447,3.5479,3.5475,3.5511,3.5526,3.5547,3.5582,3.5634,3.5669,3.5718,3.5819,3.5826,3.5864,3.5877,3.5887,3.5897,3.5949,3.5966,3.5787,3.5786,3.5786,0,0,3.529,3.5318,3.5355,3.5426,3.5453,3.5511,3.546,3.5524,3.5566,3.5535,3.5615,3.5632,3.5671,3.5763,3.5805,3.578,3.5948,3.5897,3.5905,3.5909,3.5959,3.5976,3.5991,3.5792,3.5791,3.579,0,0,3.5407,3.5435,3.5508,3.5536,3.5578,3.5586,3.5603,3.564,3.565,3.5731,3.5708,3.5758,3.5849,3.5876,3.5902,3.6028,3.6007,3.6044,3.6108,3.6159,3.6174,3.6186,3.6229,3.6245,3.6054,3.6054,3.6054,0,3.5461,3.5548,3.5547,3.5612,3.5643,3.5619,3.5691,3.5718,3.5774,3.5795,3.5767,3.5879,3.5904,3.6001,3.6031,3.6054,3.6072,3.6039,3.6172,3.6184,3.6196,3.6237,3.6253,3.6058,3.6057,3.6057,3.6057,0,3.5611,3.5672,3.5726,3.5781,3.5818,3.5887,3.5894,3.5931,3.5924,3.5934,3.6015,3.6043,3.6097,3.612,3.6114,3.6216,3.62,3.6172,3.6122,3.6217,3.6255,3.6271,3.6064,3.6062,3.6061,3.606,0,0,3.5763,3.5815,3.5835,3.5858,3.5902,3.5948,3.6015,3.6069,3.61,3.6139,3.6193,3.627,3.6244,3.6273,3.627,3.6315,3.641,3.6281,3.6282,3.6303,3.6522,3.6542,3.6561,3.6397,3.64,3.6402,3.6519,0,3.5881,3.5999,3.5999,3.6107,3.6162,3.6138,3.6196,3.6228,3.6239,3.6286,3.6298,3.6352,3.6314,3.6332,3.6376,3.6389,3.6454,3.6381,3.6446,3.6448,3.6436,3.6581,3.6603,3.6711,3.6534,3.6536,3.6538,0,3.6035,3.6079,3.6193,3.6227,3.625,3.6302,3.635,3.6396,3.6431,3.6436,3.6469,3.6457,3.6523,3.6471,3.656,3.6511,3.6537,3.6547,3.6551,3.6557,3.6498,3.6589,3.6746,3.6762,3.6562,3.656,3.6558,0,3.6132,3.622,3.6299,3.632,3.6362,3.6399,3.6418,3.645,3.6482,3.6523,3.6543,3.6592,3.6618,3.6655,3.6656,3.6619,3.6746,3.6694,3.675,3.675,3.6777,3.6775,3.694,3.6796,3.6796,3.6796,3.6795,0,3.6264,3.6334,3.6343,3.6391,3.6468,3.6467,3.6543,3.6558,3.6587,3.6636,3.6619,3.6665,3.6665,3.6712,3.6713,3.6786,3.6798,3.6802,3.6802,3.6804,3.6803,3.682,3.6812,3.68,3.6799,3.6798,3.6797,0,3.6385,3.6394,3.6478,3.6511,3.6521,3.6576,3.6604,3.6649,3.6658,3.6721,3.6735,3.6749,3.6803,3.6809,3.6872,3.6872,3.696,3.6951,3.6948,3.6946,3.7001,3.6996,3.7182,3.7205,3.7048,3.7049,3.705,0,3.6468,3.6521,3.656,3.6592,3.6613,3.6666,3.6698,3.6698,3.6732,3.6775,3.6814,3.6867,3.6909,3.6997,3.7011,3.7059,3.7051,3.7113,3.7058,3.7057,3.705,3.7047,3.7051,3.7123,3.7125,3.7126,3.7127,0,3.6614,3.6615,3.6663,3.6712,3.6751,3.6789,3.6825,3.6852,3.6855,3.6894,3.695,3.6983,3.7047,3.7098,3.7145,3.7162,3.7145,3.7145,3.716,3.7162,3.7157,3.7159,3.6976,3.714,3.7139,3.7138,3.7137,3.7137,3.6717,3.6763,3.6797,3.685,3.6877,3.691,3.6954,3.6968,3.7015,3.7068,3.7064,3.7126,3.7157,3.7218,3.7239,3.7285,3.7264,3.7287,3.7292,3.7298,3.7303,3.7151,3.7294,3.7294,3.7293,3.7293,3.7293,0,3.6861,3.6881,3.693,3.6981,3.7022,3.7003,3.7041,3.7076,3.7131,3.7162,3.7204,3.7267,3.7317,3.7335,3.7383,3.7417,3.741,3.7429,3.7426,3.743,3.7319,3.7301,3.7434,3.7434,3.7434,3.7434,3.7434,3.7434,3.694,3.7016,3.7021,3.7109,3.7129,3.7189,3.7212,3.7242,3.7267,3.7339,3.7381,3.7393,3.7418,3.7468,3.7512,3.7516,3.7534,3.7557,3.7557,3.7453,3.7438,3.7425,3.7407,3.7561,3.7561,3.7664,3.7665,3.7666]}]]